TimeCDT,TemperatureF,Dew PointF,Humidity,Sea Level PressureIn,VisibilityMPH,Wind Direction,Wind SpeedMPH,Gust SpeedMPH,PrecipitationIn,Events,Conditions,WindDirDegrees,DateUTC
12:15 AM,30.2,21.2,69,30.33,10.0,NNE,4.6,-,N/A,,Clear,30,2013-03-28 05:15:00
12:35 AM,30.2,21.2,69,30.33,10.0,NE,5.8,-,N/A,,Clear,40,2013-03-28 05:35:00
12:55 AM,28.4,23.0,80,30.32,10.0,NE,5.8,-,N/A,,Clear,40,2013-03-28 05:55:00
1:15 AM,28.4,23.0,80,30.33,10.0,NE,5.8,-,N/A,,Clear,40,2013-03-28 06:15:00
1:35 AM,28.4,23.0,80,30.33,10.0,NE,4.6,-,N/A,,Clear,50,2013-03-28 06:35:00
1:55 AM,28.4,23.0,80,30.33,10.0,NE,4.6,-,N/A,,Clear,50,2013-03-28 06:55:00
2:15 AM,28.4,23.0,80,30.33,10.0,ENE,5.8,-,N/A,,Clear,60,2013-03-28 07:15:00
2:35 AM,28.4,21.2,74,30.32,10.0,East,4.6,-,N/A,,Clear,80,2013-03-28 07:35:00
2:55 AM,28.4,21.2,74,30.32,10.0,East,4.6,-,N/A,,Clear,90,2013-03-28 07:55:00
3:15 AM,28.4,21.2,74,30.32,10.0,East,3.5,-,N/A,,Clear,80,2013-03-28 08:15:00
3:35 AM,28.4,23.0,80,30.32,10.0,ENE,4.6,-,N/A,,Clear,70,2013-03-28 08:35:00
3:55 AM,28.4,23.0,80,30.31,10.0,East,4.6,-,N/A,,Partly Cloudy,80,2013-03-28 08:55:00
4:15 AM,28.4,21.2,74,30.31,10.0,East,4.6,-,N/A,,Scattered Clouds,80,2013-03-28 09:15:00
4:35 AM,28.4,21.2,74,30.31,10.0,ENE,5.8,-,N/A,,Overcast,70,2013-03-28 09:35:00
4:55 AM,28.4,21.2,74,30.31,10.0,East,4.6,-,N/A,,Overcast,80,2013-03-28 09:55:00
5:15 AM,28.4,23.0,80,30.31,10.0,East,5.8,-,N/A,,Overcast,100,2013-03-28 10:15:00
5:35 AM,28.4,23.0,80,30.31,10.0,ESE,4.6,-,N/A,,Overcast,110,2013-03-28 10:35:00
5:55 AM,28.4,21.2,74,30.32,10.0,ESE,5.8,-,N/A,,Overcast,110,2013-03-28 10:55:00
6:15 AM,30.2,23.0,75,30.31,10.0,East,6.9,-,N/A,,Overcast,100,2013-03-28 11:15:00
6:35 AM,30.2,21.2,69,30.32,10.0,East,6.9,-,N/A,,Overcast,90,2013-03-28 11:35:00
7:15 AM,30.2,23.0,75,30.32,10.0,East,4.6,-,N/A,,Overcast,90,2013-03-28 12:15:00
7:55 AM,30.2,23.0,75,30.33,10.0,East,4.6,-,N/A,,Overcast,80,2013-03-28 12:55:00
8:15 AM,30.2,23.0,75,30.33,10.0,East,6.9,-,N/A,,Mostly Cloudy,90,2013-03-28 13:15:00
8:35 AM,32.0,23.0,69,30.32,10.0,East,6.9,-,N/A,,Mostly Cloudy,100,2013-03-28 13:35:00
8:55 AM,32.0,23.0,69,30.33,10.0,East,5.8,-,N/A,,Overcast,100,2013-03-28 13:55:00
9:15 AM,33.8,23.0,65,30.33,10.0,East,6.9,-,N/A,,Overcast,100,2013-03-28 14:15:00
9:35 AM,33.8,23.0,65,30.34,10.0,ESE,6.9,-,N/A,,Overcast,110,2013-03-28 14:35:00
9:55 AM,35.6,23.0,60,30.34,10.0,SE,6.9,-,N/A,,Overcast,130,2013-03-28 14:55:00
10:15 AM,35.6,23.0,60,30.34,10.0,SE,8.1,-,N/A,,Overcast,130,2013-03-28 15:15:00
10:55 AM,37.4,24.8,60,30.34,10.0,SE,8.1,-,N/A,,Overcast,140,2013-03-28 15:55:00
11:15 AM,37.4,24.8,60,30.34,10.0,SSE,8.1,-,N/A,,Overcast,150,2013-03-28 16:15:00
11:35 AM,39.2,26.6,61,30.34,10.0,SE,9.2,-,N/A,,Overcast,140,2013-03-28 16:35:00
11:55 AM,39.2,26.6,61,30.34,10.0,SSE,8.1,-,N/A,,Overcast,160,2013-03-28 16:55:00
12:15 PM,39.2,26.6,61,30.34,10.0,SE,5.8,-,N/A,,Overcast,140,2013-03-28 17:15:00
12:35 PM,39.2,28.4,65,30.33,10.0,SSE,9.2,-,N/A,,Overcast,160,2013-03-28 17:35:00
12:55 PM,41.0,30.2,65,30.33,10.0,SSE,8.1,-,N/A,,Overcast,160,2013-03-28 17:55:00
1:15 PM,41.0,28.4,61,30.32,10.0,SSE,5.8,-,N/A,,Overcast,150,2013-03-28 18:15:00
1:35 PM,41.0,28.4,61,30.31,10.0,ESE,3.5,-,N/A,,Mostly Cloudy,120,2013-03-28 18:35:00
1:55 PM,41.0,28.4,61,30.31,10.0,ESE,5.8,-,N/A,,Mostly Cloudy,120,2013-03-28 18:55:00
2:15 PM,42.8,30.2,61,30.30,10.0,Variable,5.8,-,N/A,,Mostly Cloudy,0,2013-03-28 19:15:00
2:35 PM,42.8,30.2,61,30.29,10.0,SSE,5.8,-,N/A,,Scattered Clouds,150,2013-03-28 19:35:00
2:55 PM,42.8,30.2,61,30.29,10.0,South,5.8,-,N/A,,Mostly Cloudy,170,2013-03-28 19:55:00
3:15 PM,42.8,30.2,61,30.28,10.0,SE,4.6,-,N/A,,Overcast,140,2013-03-28 20:15:00
3:35 PM,44.6,32.0,61,30.28,10.0,Variable,5.8,-,N/A,,Mostly Cloudy,0,2013-03-28 20:35:00
3:55 PM,42.8,30.2,61,30.27,10.0,SE,4.6,-,N/A,,Overcast,140,2013-03-28 20:55:00
4:15 PM,44.6,30.2,57,30.27,10.0,Variable,4.6,-,N/A,,Overcast,0,2013-03-28 21:15:00
4:35 PM,44.6,32.0,61,30.27,10.0,East,6.9,-,N/A,,Overcast,100,2013-03-28 21:35:00
4:55 PM,44.6,32.0,61,30.27,10.0,SSE,3.5,-,N/A,,Scattered Clouds,150,2013-03-28 21:55:00
5:15 PM,44.6,30.2,57,30.27,10.0,SE,4.6,-,N/A,,Clear,130,2013-03-28 22:15:00
5:35 PM,44.6,30.2,57,30.27,10.0,East,8.1,-,N/A,,Clear,100,2013-03-28 22:35:00
5:55 PM,44.6,32.0,61,30.27,10.0,ESE,5.8,-,N/A,,Clear,110,2013-03-28 22:55:00
6:15 PM,44.6,32.0,61,30.27,10.0,East,5.8,-,N/A,,Clear,80,2013-03-28 23:15:00
6:35 PM,42.8,33.8,70,30.27,10.0,ENE,6.9,-,N/A,,Clear,70,2013-03-28 23:35:00
6:55 PM,41.0,33.8,76,30.27,10.0,NE,8.1,-,N/A,,Clear,50,2013-03-28 23:55:00
7:15 PM,39.2,32.0,75,30.27,10.0,NE,9.2,-,N/A,,Clear,50,2013-03-29 00:15:00
7:35 PM,39.2,32.0,75,30.28,10.0,ENE,6.9,-,N/A,,Clear,60,2013-03-29 00:35:00
7:55 PM,37.4,32.0,81,30.28,10.0,ENE,6.9,-,N/A,,Clear,60,2013-03-29 00:55:00
8:15 PM,37.4,30.2,75,30.28,10.0,ENE,6.9,-,N/A,,Clear,70,2013-03-29 01:15:00
8:35 PM,35.6,30.2,81,30.28,10.0,ENE,6.9,-,N/A,,Clear,70,2013-03-29 01:35:00
8:55 PM,35.6,28.4,75,30.28,10.0,East,6.9,-,N/A,,Clear,80,2013-03-29 01:55:00
9:15 PM,33.8,28.4,81,30.29,10.0,East,6.9,-,N/A,,Clear,80,2013-03-29 02:15:00
9:35 PM,33.8,28.4,81,30.29,10.0,ENE,8.1,-,N/A,,Clear,70,2013-03-29 02:35:00
9:55 PM,33.8,28.4,81,30.29,10.0,East,6.9,-,N/A,,Clear,80,2013-03-29 02:55:00
10:15 PM,33.8,28.4,81,30.29,10.0,East,6.9,-,N/A,,Clear,80,2013-03-29 03:15:00
10:35 PM,33.8,28.4,81,30.29,10.0,East,6.9,-,N/A,,Clear,80,2013-03-29 03:35:00
10:55 PM,33.8,28.4,81,30.28,10.0,East,8.1,-,N/A,,Clear,80,2013-03-29 03:55:00
11:15 PM,33.8,26.6,75,30.28,10.0,East,8.1,-,N/A,,Clear,80,2013-03-29 04:15:00
11:55 PM,32.0,26.6,80,30.28,10.0,East,6.9,-,N/A,,Clear,90,2013-03-29 04:55:00